#timestamp,LO_Frequency,Hit,StdDev 
1664722815.5,286047001.1,N
1664722835.3,286046998.5,N
1664722855.1,286046999.1,N
1664722875.9,286046999.6,N
1664722895.7,286046997.3,N
1664722915.6,286046995.3,Y
1664722935.4,286046997.2,P
1664722955.2,286046999.2,N
1664722975.1,286046998.6,N
1664722976.0,286046998.6,N
1664722995.8,286046998.4,N
1664723015.7,286046998.9,N
1664723035.5,286047000.8,N
1664723055.3,286046998.1,N
1664723075.2,286046994.9,Y
1664723095.0,286046997.5,P
1664723095.9,286046997.5,P
1664723115.7,286046996.4,P
1664723135.6,286046996.0,Y
1664723155.4,286046996.7,P
1664723175.3,286046997.3,P
1664723195.1,286046997.3,P
1664723196.0,286046997.3,Y
1664723215.8,286046998.3,P
1664723235.7,286046996.8,P
1664723255.5,286046995.4,P
1664723275.4,286046995.3,Y
1664723295.2,286046999.0,P
1664723315.0,286046999.2,N
1664723315.9,286046999.2,N
1664723335.8,286046998.8,N
1664723355.6,286047000.4,N
1664723375.4,286047000.0,N
1664723395.3,286046998.6,N
1664723415.1,286047000.9,N
1664723435.9,286047000.1,N
1664723455.7,286047002.1,N
1664723475.5,286046999.7,N
1664723495.4,286046999.0,N
1664723515.2,286047000.9,N
1664723535.0,286047001.2,N
1664723535.9,286047001.2,N
1664723555.8,286046998.6,N
1664723575.6,286047001.2,N
1664723595.5,286047000.0,N
1664723615.3,286047000.2,N
1664723635.1,286047000.5,N
1664723655.9,286047001.1,N
1664723675.7,286046998.7,N
1664723695.5,286046996.8,N
1664723715.4,286046999.0,N
1664723735.2,286046998.6,N
1664723755.1,286046999.5,N
1664723756.0,286046999.5,N
1664723775.8,286046997.0,N
1664723795.6,286046996.9,N
1664723815.5,286046996.9,N
1664723835.3,286046997.3,N
1664723855.1,286046997.2,N
1664723875.9,286046997.6,N
1664723895.7,286046993.7,Y
1664723915.6,286046996.0,P
1664723935.4,286046995.0,P
1664723955.2,286046995.0,N
1664723975.1,286046997.9,N
1664723976.0,286046997.9,N
1664723995.8,286046995.5,N
1664724015.7,286046993.6,Y
1664724035.5,286046998.4,P
1664724055.3,286046999.1,N
1664724075.2,286046999.4,N
1664724095.0,286046997.8,N
1664724095.9,286046997.8,N
1664724115.8,286046997.0,Y
1664724135.6,286047000.6,P
1664724155.4,286046998.4,N
1664724175.3,286046997.1,N
1664724195.1,286046996.5,N
1664724215.9,286046998.4,N
1664724235.7,286047000.0,N
1664724255.5,286046999.3,N
1664724275.4,286047000.4,N
1664724295.2,286047001.8,N
1664724315.0,286047003.9,N
1664724315.9,286047003.9,N
1664724335.8,286047003.1,N
1664724355.6,286047004.8,N
1664724375.5,286047007.5,N
1664724395.3,286047004.5,N
1664724415.1,286047007.2,N
1664724435.9,286047008.5,N
1664724455.7,286047010.3,N
1664724475.5,286047009.5,N
1664724495.4,286047011.9,N
1664724515.2,286047012.2,N
1664724535.1,286047009.7,N
1664724536.0,286047009.7,N
1664724555.8,286047011.7,N
1664724575.6,286047011.9,N
1664724595.5,286047012.0,N
1664724615.3,286047012.3,N
1664724635.1,286047007.7,N
1664724655.9,286047008.5,N
1664724675.7,286047008.4,N
1664724695.6,286047007.8,N
1664724715.4,286047008.2,N
1664724735.2,286047008.5,N
1664724755.1,286047008.5,N
1664724756.0,286047008.5,N
1664724775.8,286047006.3,N
1664724795.7,286047005.9,N
1664724815.5,286047005.6,N
1664724835.3,286047004.6,N
1664724855.2,286047006.8,N
1664724875.9,286047009.0,Y
1664724895.7,286047004.3,P
1664724915.6,286047005.0,N
1664724935.4,286047009.1,P
1664724955.3,286047008.3,Y
1664724975.1,286047003.8,P
1664724976.0,286047003.8,N
1664724995.8,286047003.8,N
1664725015.7,286047006.3,Y
1664725035.5,286047003.4,P
1664725055.4,286047005.8,P
1664725075.2,286047007.3,P
1664725095.0,286047006.9,Y
1664725095.9,286047006.9,P
1664725115.8,286047000.1,N
1664725135.6,286047002.0,N
1664725155.4,286047004.0,N
1664725175.3,286047001.7,N
1664725195.1,286047001.7,N
1664725215.9,286047001.9,N
1664725235.7,286047011.9,Y
1664725255.5,286047000.8,P
1664725275.4,286047001.1,N
1664725295.2,286046999.8,N
1664725315.0,286047002.4,N
1664725315.9,286047002.4,N
1664725335.8,286046999.8,N
1664725355.6,286046998.1,N
1664725375.5,286047000.8,N
1664725395.3,286047000.5,N
1664725415.1,286047002.6,N
1664725435.9,286047001.6,N
1664725455.7,286047001.8,N
1664725475.6,286047000.0,N
1664725495.4,286046999.8,N
1664725515.2,286047002.3,N
1664725535.1,286047002.7,N
1664725536.0,286047002.7,N
1664725555.8,286046999.8,N
1664725575.6,286046999.7,N
1664725595.5,286047005.6,Y
1664725615.3,286047003.1,P
1664725635.2,286047004.1,P
1664725655.9,286047002.8,N
1664725675.7,286047003.9,Y
1664725695.6,286046999.7,P
1664725715.4,286047000.6,N
1664725735.3,286046998.2,N
1664725755.1,286046999.5,N
1664725775.8,286046997.1,N
1664725795.7,286046997.4,N
1664725815.5,286046995.1,N
1664725835.4,286046996.2,N
1664725855.2,286046997.8,N
1664725875.0,286046997.9,N
1664725875.9,286046997.9,N
1664725895.8,286046997.6,N
1664725915.6,286046996.0,N
1664725935.5,286046993.6,Y
1664725955.3,286046997.5,P
1664725975.2,286046997.6,P
1664725995.9,286046997.6,P
1664726015.7,286046996.2,Y
1664726035.6,286046997.1,P
1664726055.4,286046998.0,P
1664726075.2,286046995.2,P
1664726125.1,286046995.9,E
1664726135.0,286046997.8,N
1664726135.9,286046997.8,P
1664726155.8,286047001.2,P
1664726175.6,286047000.9,N
1664726195.4,286046998.2,N
1664726215.3,286046998.1,N
1664726235.1,286046998.6,N
1664726255.9,286046996.7,N
1664726275.7,286046999.4,N
1664726295.5,286046995.3,Y
1664726315.4,286046997.4,P
1664726335.2,286046995.5,P
1664726355.0,286046997.5,N
1664726355.9,286046997.5,N
1664726375.8,286046997.6,N
1664726395.6,286046995.0,Y
